| time (UTC) | temp F | wind direction | speed knots | gust knots | rain 1hr in | rain 24hr in | rain mn in | humidity % | barometer mb |
| 20260506152405 | 62 | 6 | 6.1 | 14.8 | 0.06 | 0.07 | 0.06 | 90 | 1022.7 |
| 20260506151905 | 62 | 13 | 6.1 | 11.3 | 0.04 | 0.06 | 0.04 | 90 | 1022.8 |
| 20260506150905 | 62 | 12 | 5.2 | 10.4 | 0.01 | 0.02 | 0.01 | 90 | 1022.8 |
| 20260506150405 | 62 | 13 | 2.6 | 8.7 | 0.01 | 0.02 | 0.01 | 90 | 1022.9 |
| 20260506145906 | 62 | 18 | 4.3 | 11.3 | 0.00 | 0.02 | 0.00 | 90 | 1023.1 |
| 20260506145406 | 62 | 25 | 6.1 | 10.4 | 0.00 | 0.02 | 0.00 | 90 | 1023.2 |
| 20260506144906 | 62 | 23 | 1.7 | 7.8 | 0.00 | 0.02 | 0.00 | 89 | 1023.3 |
| 20260506144405 | 62 | 4 | 2.6 | 7.0 | 0.00 | 0.02 | 0.00 | 89 | 1023.4 |
| 20260506143905 | 62 | 6 | 6.1 | 8.7 | 0.00 | 0.02 | 0.00 | 89 | 1023.5 |
| 20260506143406 | 62 | 0 | 1.7 | 4.3 | 0.00 | 0.02 | 0.00 | 89 | 1023.6 |
| 20260506142905 | 62 | 19 | 3.5 | 7.8 | 0.00 | 0.02 | 0.00 | 89 | 1023.6 |
| 20260506142406 | 62 | 4 | 3.5 | 7.8 | 0.00 | 0.02 | 0.00 | 89 | 1023.8 |
| 20260506141906 | 62 | 18 | 4.3 | 10.4 | 0.00 | 0.02 | 0.00 | 89 | 1023.8 |
| 20260506141406 | 62 | 14 | 3.5 | 7.0 | 0.00 | 0.02 | 0.00 | 89 | 1023.9 |
| 20260506140906 | 62 | 21 | 3.5 | 10.4 | 0.00 | 0.02 | 0.00 | 89 | 1023.9 |
| 20260506135905 | 62 | 25 | 2.6 | 11.3 | 0.00 | 0.02 | 0.00 | 89 | 1024.0 |
| 20260506135406 | 62 | 29 | 4.3 | 8.7 | 0.00 | 0.02 | 0.00 | 89 | 1024.1 |
| 20260506134906 | 62 | 7 | 4.3 | 7.8 | 0.00 | 0.02 | 0.00 | 89 | 1024.1 |
| 20260506133406 | 62 | 4 | 0.9 | 4.3 | 0.00 | 0.02 | 0.00 | 89 | 1024.2 |
| 20260506132906 | 62 | 5 | 2.6 | 5.2 | 0.00 | 0.02 | 0.00 | 89 | 1024.2 |
| 20260506132406 | 62 | 8 | 1.7 | 7.0 | 0.00 | 0.02 | 0.00 | 89 | 1024.3 |
| 20260506131906 | 62 | 14 | 2.6 | 7.8 | 0.00 | 0.02 | 0.00 | 89 | 1024.3 |
| 20260506130906 | 62 | 358 | 0.9 | 1.7 | 0.00 | 0.02 | 0.00 | 89 | 1024.4 |
| 20260506130405 | 62 | 16 | 0.0 | 0.9 | 0.00 | 0.02 | 0.00 | 89 | 1024.4 |
| 20260506125905 | 62 | 16 | 0.9 | 1.7 | 0.01 | 0.02 | 0.00 | 89 | 1024.4 |
| 20260506125405 | 62 | 1 | 1.7 | 2.6 | 0.01 | 0.02 | 0.00 | 89 | 1024.5 |
| 20260506124405 | 62 | 338 | 0.0 | 0.9 | 0.01 | 0.02 | 0.00 | 89 | 1024.5 |
| 20260506123906 | 62 | 349 | 0.0 | 0.9 | 0.01 | 0.02 | 0.00 | 89 | 1024.5 |
| 20260506123406 | 62 | 346 | 0.9 | 2.6 | 0.01 | 0.02 | 0.00 | 89 | 1024.6 |
| 20260506122406 | 62 | 345 | 1.7 | 2.6 | 0.01 | 0.02 | 0.00 | 89 | 1024.6 |
| 20260506121905 | 62 | 16 | 1.7 | 2.6 | 0.01 | 0.02 | 0.00 | 89 | 1024.7 |
| 20260506121406 | 62 | 349 | 0.0 | 2.6 | 0.01 | 0.02 | 0.00 | 89 | 1024.7 |
| 20260506120905 | 62 | 0 | 2.6 | 4.3 | 0.01 | 0.02 | 0.00 | 90 | 1024.7 |
| 20260506120405 | 62 | 13 | 2.6 | 6.1 | 0.01 | 0.02 | 0.00 | 90 | 1024.7 |
| 20260506115405 | 62 | 356 | 0.9 | 7.8 | 0.00 | 0.01 | 0.01 | 90 | 1024.7 |
| 20260506114906 | 62 | 24 | 0.9 | 2.6 | 0.00 | 0.01 | 0.01 | 90 | 1024.7 |
| 20260506114405 | 62 | 22 | 0.9 | 2.6 | 0.00 | 0.01 | 0.01 | 90 | 1024.8 |
| 20260506113905 | 62 | 0 | 1.7 | 2.6 | 0.00 | 0.01 | 0.01 | 90 | 1024.8 |
| 20260506113406 | 62 | 354 | 0.9 | 4.3 | 0.00 | 0.01 | 0.01 | 90 | 1024.9 |
| 20260506112405 | 62 | 5 | 0.9 | 2.6 | 0.00 | 0.01 | 0.01 | 90 | 1025.0 |
| 20260506111905 | 62 | 355 | 1.7 | 2.6 | 0.00 | 0.01 | 0.01 | 90 | 1025.0 |
| 20260506111407 | 62 | 8 | 0.9 | 2.6 | 0.00 | 0.01 | 0.01 | 90 | 1025.0 |
| 20260506110906 | 62 | 9 | 0.9 | 1.7 | 0.00 | 0.01 | 0.01 | 89 | 1025.0 |
| 20260506110406 | 62 | 18 | 0.0 | 0.0 | 0.00 | 0.01 | 0.01 | 89 | 1025.1 |
| 20260506105407 | 62 | 18 | 0.0 | 1.7 | 0.00 | 0.01 | 0.01 | 89 | 1025.1 |
| 20260506104907 | 62 | 10 | 0.0 | 0.9 | 0.00 | 0.01 | 0.01 | 89 | 1025.2 |
| 20260506104406 | 62 | 10 | 0.9 | 2.6 | 0.00 | 0.01 | 0.01 | 89 | 1025.2 |
| 20260506103907 | 62 | 4 | 0.0 | 1.7 | 0.00 | 0.01 | 0.01 | 89 | 1025.2 |
| 20260506103405 | 62 | 4 | 0.0 | 0.9 | 0.00 | 0.01 | 0.01 | 89 | 1025.2 |
| 20260506102907 | 62 | 4 | 0.0 | 2.6 | 0.00 | 0.01 | 0.01 | 89 | 1025.3 |
| 20260506102406 | 62 | 356 | 0.0 | 2.6 | 0.00 | 0.01 | 0.01 | 89 | 1025.3 |
| 20260506101908 | 62 | 352 | 0.0 | 1.7 | 0.00 | 0.01 | 0.01 | 89 | 1025.3 |
| 20260506100906 | 62 | 357 | 0.0 | 2.6 | 0.00 | 0.01 | 0.01 | 89 | 1025.3 |
| 20260506095907 | 62 | 1 | 1.7 | 6.1 | 0.00 | 0.01 | 0.01 | 90 | 1025.2 |
| 20260506095407 | 62 | 22 | 3.5 | 5.2 | 0.00 | 0.01 | 0.01 | 90 | 1025.3 |
| 20260506094906 | 62 | 3 | 0.9 | 4.3 | 0.00 | 0.01 | 0.01 | 90 | 1025.2 |
| 20260506094406 | 62 | 356 | 0.9 | 2.6 | 0.00 | 0.01 | 0.01 | 90 | 1025.3 |
| 20260506093906 | 62 | 18 | 1.7 | 2.6 | 0.00 | 0.01 | 0.01 | 90 | 1025.2 |
| 20260506093408 | 62 | 9 | 0.9 | 2.6 | 0.00 | 0.01 | 0.01 | 90 | 1025.2 |
| 20260506092906 | 62 | 2 | 0.9 | 6.1 | 0.00 | 0.01 | 0.01 | 90 | 1025.2 |
| 20260506092406 | 62 | 28 | 0.9 | 4.3 | 0.00 | 0.01 | 0.01 | 90 | 1025.2 |
| 20260506091907 | 62 | 33 | 0.9 | 2.6 | 0.00 | 0.01 | 0.01 | 90 | 1025.2 |
| 20260506091406 | 62 | 350 | 0.9 | 2.6 | 0.00 | 0.01 | 0.01 | 90 | 1025.3 |
| 20260506090905 | 62 | 334 | 0.0 | 1.7 | 0.00 | 0.01 | 0.01 | 90 | 1025.2 |
| 20260506090405 | 62 | 330 | 0.0 | 1.7 | 0.00 | 0.01 | 0.01 | 89 | 1025.3 |
| 20260506085905 | 62 | 17 | 0.9 | 1.7 | 0.00 | 0.01 | 0.01 | 89 | 1025.2 |
| 20260506085405 | 62 | 17 | 0.9 | 0.9 | 0.00 | 0.01 | 0.01 | 89 | 1025.2 |
| 20260506084406 | 62 | 18 | 0.9 | 0.9 | 0.00 | 0.01 | 0.01 | 89 | 1025.2 |
| 20260506083907 | 62 | 18 | 1.7 | 2.6 | 0.00 | 0.01 | 0.01 | 89 | 1025.2 |
| 20260506083407 | 62 | 353 | 0.9 | 2.6 | 0.00 | 0.01 | 0.01 | 89 | 1025.2 |
| 20260506082907 | 62 | 12 | 1.7 | 2.6 | 0.00 | 0.01 | 0.01 | 89 | 1025.2 |
| 20260506082406 | 62 | 23 | 1.7 | 2.6 | 0.00 | 0.01 | 0.01 | 89 | 1025.3 |
| 20260506081906 | 62 | 355 | 2.6 | 6.1 | 0.00 | 0.01 | 0.01 | 89 | 1025.3 |
| 20260506080906 | 62 | 5 | 2.6 | 7.0 | 0.00 | 0.01 | 0.01 | 89 | 1025.4 |
| 20260506080406 | 62 | 13 | 2.6 | 7.0 | 0.00 | 0.01 | 0.01 | 89 | 1025.3 |
| 20260506073408 | 62 | 2 | 0.9 | 4.3 | 0.00 | 0.01 | 0.01 | 90 | 1025.4 |
| 20260506072906 | 62 | 8 | 3.5 | 8.7 | 0.00 | 0.01 | 0.01 | 90 | 1025.5 |
| 20260506071907 | 62 | 349 | 2.6 | 7.0 | 0.00 | 0.01 | 0.01 | 90 | 1025.4 |
| 20260506071406 | 62 | 1 | 1.7 | 4.3 | 0.00 | 0.01 | 0.01 | 90 | 1025.5 |
| 20260506070906 | 62 | 16 | 0.9 | 6.1 | 0.00 | 0.01 | 0.01 | 90 | 1025.5 |
| 20260506062406 | 62 | 16 | 0.9 | 2.6 | 0.00 | 0.01 | 0.01 | 89 | 1025.4 |
| 20260506061905 | 62 | 0 | 1.7 | 4.3 | 0.00 | 0.01 | 0.01 | 89 | 1025.4 |
| 20260506061406 | 62 | 358 | 1.7 | 5.2 | 0.00 | 0.01 | 0.01 | 89 | 1025.5 |
| 20260506060405 | 62 | 25 | 0.9 | 4.3 | 0.00 | 0.01 | 0.01 | 89 | 1025.5 |
| 20260506051405 | 63 | 3 | 1.7 | 2.6 | 0.00 | 0.01 | 0.01 | 88 | 1025.5 |
| 20260506050905 | 63 | 355 | 1.7 | 7.0 | 0.00 | 0.01 | 0.01 | 88 | 1025.5 |
| 20260506050406 | 63 | 347 | 2.6 | 7.0 | 0.00 | 0.01 | 0.01 | 88 | 1025.5 |
| 20260506044905 | 63 | 352 | 2.6 | 7.8 | 0.00 | 0.01 | 0.01 | 88 | 1025.5 |
| 20260506044406 | 63 | 356 | 2.6 | 6.1 | 0.00 | 0.01 | 0.01 | 88 | 1025.5 |
| 20260506043905 | 63 | 352 | 2.6 | 7.8 | 0.00 | 0.01 | 0.01 | 88 | 1025.6 |
| 20260506042905 | 63 | 342 | 3.5 | 7.8 | 0.00 | 0.01 | 0.01 | 87 | 1025.6 |
| 20260506042405 | 63 | 341 | 2.6 | 6.1 | 0.00 | 0.01 | 0.01 | 87 | 1025.6 |
| 20260506041405 | 63 | 331 | 1.7 | 5.2 | 0.00 | 0.01 | 0.01 | 88 | 1025.5 |
| 20260506040905 | 63 | 348 | 2.6 | 7.8 | 0.00 | 0.01 | 0.01 | 88 | 1025.5 |
| 20260506040406 | 63 | 350 | 2.6 | 7.0 | 0.00 | 0.01 | 0.01 | 88 | 1025.5 |
| 20260506035906 | 63 | 0 | 3.5 | 8.7 | 0.00 | 0.01 | 0.01 | 88 | 1025.5 |
| 20260506035405 | 63 | 348 | 5.2 | 10.4 | 0.00 | 0.01 | 0.01 | 88 | 1025.5 |
| 20260506034905 | 63 | 350 | 1.7 | 7.8 | 0.00 | 0.01 | 0.01 | 88 | 1025.6 |
| 20260506034405 | 63 | 352 | 4.3 | 10.4 | 0.00 | 0.01 | 0.01 | 88 | 1025.6 |
| 20260506033905 | 63 | 346 | 5.2 | 8.7 | 0.00 | 0.01 | 0.01 | 88 | 1025.6 |
| 20260506033405 | 63 | 357 | 2.6 | 7.8 | 0.00 | 0.01 | 0.01 | 88 | 1025.6 |
| 20260506032405 | 63 | 353 | 2.6 | 7.8 | 0.00 | 0.01 | 0.01 | 88 | 1025.7 |
| 20260506031906 | 63 | 336 | 4.3 | 8.7 | 0.00 | 0.01 | 0.01 | 88 | 1025.7 |
| 20260506031405 | 63 | 349 | 2.6 | 7.0 | 0.00 | 0.01 | 0.01 | 88 | 1025.7 |
| 20260506030406 | 63 | 325 | 2.6 | 7.8 | 0.00 | 0.01 | 0.01 | 88 | 1025.8 |
| 20260506025905 | 63 | 349 | 2.6 | 4.3 | 0.00 | 0.01 | 0.01 | 87 | 1025.8 |
| 20260506025405 | 63 | 347 | 1.7 | 5.2 | 0.00 | 0.01 | 0.01 | 87 | 1025.7 |
| 20260506024905 | 63 | 359 | 2.6 | 7.0 | 0.00 | 0.01 | 0.01 | 87 | 1025.7 |
| 20260506024405 | 64 | 327 | 0.9 | 7.0 | 0.00 | 0.01 | 0.01 | 87 | 1025.7 |
| 20260506023905 | 64 | 356 | 0.9 | 2.6 | 0.00 | 0.01 | 0.01 | 87 | 1025.7 |
| 20260506023405 | 64 | 346 | 0.9 | 2.6 | 0.00 | 0.01 | 0.01 | 87 | 1025.8 |
| 20260506022906 | 64 | 341 | 0.0 | 0.9 | 0.00 | 0.01 | 0.01 | 87 | 1025.7 |
| 20260506022405 | 64 | 351 | 0.9 | 1.7 | 0.00 | 0.01 | 0.01 | 87 | 1025.8 |
| 20260506021905 | 64 | 317 | 0.9 | 2.6 | 0.00 | 0.01 | 0.01 | 87 | 1025.8 |
| 20260506021406 | 64 | 353 | 0.9 | 2.6 | 0.00 | 0.01 | 0.01 | 87 | 1025.8 |
| 20260506020905 | 64 | 358 | 0.9 | 2.6 | 0.00 | 0.01 | 0.01 | 86 | 1025.8 |
| 20260506020405 | 64 | 353 | 1.7 | 2.6 | 0.00 | 0.01 | 0.01 | 86 | 1025.9 |
| 20260506015905 | 64 | 340 | 1.7 | 2.6 | 0.00 | 0.01 | 0.01 | 86 | 1025.9 |
| 20260506015405 | 64 | 339 | 0.9 | 2.6 | 0.00 | 0.01 | 0.01 | 85 | 1025.9 |
| 20260506014906 | 64 | 338 | 0.9 | 2.6 | 0.00 | 0.01 | 0.01 | 84 | 1025.9 |
| 20260506014405 | 65 | 332 | 0.9 | 4.3 | 0.00 | 0.01 | 0.01 | 84 | 1026.0 |
| 20260506013905 | 65 | 306 | 0.9 | 2.6 | 0.00 | 0.01 | 0.01 | 84 | 1026.0 |
| 20260506013405 | 65 | 275 | 0.9 | 2.6 | 0.00 | 0.01 | 0.01 | 83 | 1026.1 |
| 20260506012905 | 65 | 206 | 0.9 | 2.6 | 0.00 | 0.01 | 0.01 | 84 | 1026.1 |
| 20260506012405 | 65 | 292 | 0.9 | 2.6 | 0.00 | 0.01 | 0.01 | 84 | 1026.2 |
| 20260506011905 | 65 | 329 | 0.9 | 2.6 | 0.00 | 0.01 | 0.01 | 84 | 1026.2 |
| 20260506010405 | 64 | 237 | 0.9 | 1.7 | 0.00 | 0.01 | 0.01 | 85 | 1026.3 |
| 20260506005905 | 64 | 359 | 1.7 | 2.6 | 0.00 | 0.01 | 0.01 | 84 | 1026.4 |
| 20260506005406 | 64 | 353 | 0.9 | 2.6 | 0.00 | 0.01 | 0.01 | 84 | 1026.5 |
| 20260506004910 | 64 | 318 | 1.7 | 4.3 | 0.00 | 0.01 | 0.01 | 84 | 1026.5 |
| 20260506004406 | 64 | 359 | 0.9 | 4.3 | 0.00 | 0.01 | 0.01 | 84 | 1026.6 |
| 20260506003906 | 64 | 320 | 1.7 | 2.6 | 0.00 | 0.01 | 0.01 | 84 | 1026.7 |
| 20260506003407 | 64 | 294 | 0.9 | 2.6 | 0.00 | 0.01 | 0.01 | 84 | 1026.7 |
| 20260506002907 | 64 | 302 | 0.9 | 1.7 | 0.00 | 0.01 | 0.01 | 84 | 1026.7 |
| 20260506002406 | 64 | 354 | 0.9 | 2.6 | 0.00 | 0.01 | 0.01 | 84 | 1026.8 |
| 20260506001407 | 64 | 355 | 0.9 | 1.7 | 0.00 | 0.01 | 0.01 | 83 | 1026.9 |
| 20260506000905 | 64 | 359 | 0.9 | 1.7 | 0.00 | 0.01 | 0.01 | 82 | 1026.9 |
| 20260506000406 | 65 | 322 | 0.9 | 2.6 | 0.00 | 0.01 | 0.01 | 82 | 1027.0 |
| 20260505235905 | 64 | 227 | 0.0 | 1.7 | 0.00 | 0.01 | 0.01 | 83 | 1027.0 |
| 20260505235406 | 64 | 218 | 0.9 | 1.7 | 0.00 | 0.01 | 0.01 | 82 | 1027.1 |
| 20260505234406 | 64 | 219 | 0.9 | 1.7 | 0.00 | 0.01 | 0.01 | 83 | 1027.2 |
| 20260505233906 | 64 | 219 | 0.0 | 1.7 | 0.00 | 0.01 | 0.01 | 83 | 1027.2 |
| 20260505233406 | 64 | 219 | 0.0 | 1.7 | 0.00 | 0.01 | 0.01 | 83 | 1027.3 |
| 20260505232905 | 64 | 219 | 0.9 | 1.7 | 0.00 | 0.01 | 0.01 | 83 | 1027.3 |
| 20260505232405 | 63 | 218 | 0.9 | 1.7 | 0.00 | 0.01 | 0.01 | 84 | 1027.3 |
| 20260505230905 | 62 | 136 | 0.0 | 0.9 | 0.01 | 0.01 | 0.01 | 86 | 1027.4 |
| 20260505230405 | 62 | 135 | 0.0 | 0.9 | 0.01 | 0.01 | 0.01 | 86 | 1027.4 |
| 20260505225906 | 62 | 118 | 0.0 | 0.9 | 0.01 | 0.01 | 0.01 | 86 | 1027.5 |
| 20260505225406 | 62 | 118 | 0.0 | 1.7 | 0.01 | 0.01 | 0.01 | 87 | 1027.4 |
| 20260505224905 | 61 | 118 | 0.0 | 0.9 | 0.01 | 0.01 | 0.01 | 88 | 1027.4 |
| 20260505224405 | 60 | 116 | 0.0 | 0.9 | 0.01 | 0.01 | 0.01 | 88 | 1027.4 |
| 20260505223906 | 60 | 115 | 0.0 | 0.9 | 0.01 | 0.01 | 0.01 | 88 | 1027.4 |
| 20260505223405 | 60 | 116 | 0.0 | 0.0 | 0.01 | 0.01 | 0.01 | 88 | 1027.4 |
| 20260505222905 | 60 | 116 | 0.0 | 0.9 | 0.01 | 0.01 | 0.01 | 88 | 1027.5 |
| 20260505221905 | 58 | 116 | 0.0 | 1.7 | 0.01 | 0.01 | 0.01 | 87 | 1027.5 |
| 20260505221405 | 58 | 116 | 0.0 | 1.7 | 0.01 | 0.01 | 0.01 | 87 | 1027.6 |
| 20260505220905 | 58 | 129 | 0.0 | 1.7 | 0.00 | 0.00 | 0.00 | 87 | 1027.6 |
| 20260505215905 | 57 | 103 | 1.7 | 2.6 | 0.00 | 0.00 | 0.00 | 86 | 1027.7 |
| 20260505215405 | 57 | 104 | 0.9 | 1.7 | 0.00 | 0.00 | 0.00 | 86 | 1027.7 |
| 20260505214905 | 57 | 122 | 1.7 | 5.2 | 0.00 | 0.00 | 0.00 | 85 | 1027.7 |
| 20260505214405 | 58 | 91 | 0.9 | 2.6 | 0.00 | 0.00 | 0.00 | 85 | 1027.7 |
| 20260505213406 | 57 | 79 | 0.9 | 5.2 | 0.00 | 0.00 | 0.00 | 84 | 1027.7 |
| 20260505212905 | 57 | 94 | 1.7 | 5.2 | 0.00 | 0.00 | 0.00 | 84 | 1027.7 |
| 20260505212405 | 57 | 97 | 1.7 | 6.1 | 0.00 | 0.00 | 0.00 | 84 | 1027.7 |
| 20260505211905 | 57 | 102 | 5.2 | 7.8 | 0.00 | 0.00 | 0.00 | 84 | 1027.7 |
| 20260505211406 | 57 | 101 | 4.3 | 7.0 | 0.00 | 0.00 | 0.00 | 84 | 1027.6 |
| 20260505210406 | 58 | 92 | 2.6 | 6.1 | 0.00 | 0.00 | 0.00 | 84 | 1027.6 |
| 20260505205907 | 58 | 106 | 3.5 | 6.1 | 0.00 | 0.00 | 0.00 | 84 | 1027.6 |
| 20260505205406 | 58 | 97 | 4.3 | 7.0 | 0.00 | 0.00 | 0.00 | 83 | 1027.6 |
| 20260505204906 | 58 | 107 | 4.3 | 7.0 | 0.00 | 0.00 | 0.00 | 83 | 1027.5 |
| 20260505204406 | 58 | 103 | 4.3 | 7.8 | 0.00 | 0.00 | 0.00 | 84 | 1027.5 |
| 20260505203907 | 58 | 94 | 3.5 | 7.0 | 0.00 | 0.00 | 0.00 | 84 | 1027.5 |
| 20260505203406 | 57 | 104 | 5.2 | 7.0 | 0.00 | 0.00 | 0.00 | 84 | 1027.5 |
| 20260505202906 | 57 | 97 | 4.3 | 7.8 | 0.00 | 0.00 | 0.00 | 84 | 1027.4 |
| 20260505202407 | 57 | 105 | 4.3 | 7.0 | 0.00 | 0.00 | 0.00 | 84 | 1027.4 |
| 20260505201906 | 57 | 106 | 5.2 | 7.8 | 0.00 | 0.00 | 0.00 | 84 | 1027.3 |
| 20260505201406 | 57 | 107 | 6.1 | 7.8 | 0.00 | 0.00 | 0.00 | 84 | 1027.3 |
| 20260505200905 | 56 | 96 | 6.1 | 8.7 | 0.00 | 0.00 | 0.00 | 84 | 1027.3 |
| 20260505200408 | 56 | 102 | 5.2 | 8.7 | 0.00 | 0.00 | 0.00 | 85 | 1027.2 |
| 20260505195406 | 56 | 101 | 6.1 | 8.7 | 0.00 | 0.00 | 0.00 | 84 | 1027.4 |
| 20260505194906 | 56 | 102 | 6.1 | 7.8 | 0.00 | 0.00 | 0.00 | 84 | 1027.4 |
| 20260505194407 | 56 | 103 | 6.1 | 7.8 | 0.00 | 0.00 | 0.00 | 84 | 1027.4 |
| 20260505193906 | 56 | 102 | 6.1 | 10.4 | 0.00 | 0.00 | 0.00 | 84 | 1027.4 |
| 20260505193406 | 56 | 100 | 6.1 | 10.4 | 0.00 | 0.00 | 0.00 | 84 | 1027.3 |
| 20260505192907 | 56 | 98 | 6.1 | 8.7 | 0.00 | 0.00 | 0.00 | 84 | 1027.3 |
| 20260505191906 | 56 | 100 | 5.2 | 10.4 | 0.00 | 0.00 | 0.00 | 84 | 1027.3 |
| 20260505191406 | 56 | 110 | 6.1 | 8.7 | 0.00 | 0.00 | 0.00 | 84 | 1027.3 |
| 20260505190908 | 56 | 103 | 6.1 | 10.4 | 0.00 | 0.00 | 0.00 | 83 | 1027.3 |
| 20260505185906 | 56 | 104 | 7.0 | 7.8 | 0.00 | 0.00 | 0.00 | 83 | 1027.4 |
| 20260505185406 | 56 | 101 | 6.1 | 7.8 | 0.00 | 0.00 | 0.00 | 83 | 1027.5 |
| 20260505184907 | 56 | 86 | 5.2 | 8.7 | 0.00 | 0.00 | 0.00 | 82 | 1027.5 |
| 20260505184406 | 56 | 90 | 4.3 | 7.8 | 0.00 | 0.00 | 0.00 | 82 | 1027.5 |
| 20260505183906 | 56 | 96 | 5.2 | 8.7 | 0.00 | 0.00 | 0.00 | 81 | 1027.5 |
| 20260505182906 | 56 | 99 | 6.1 | 8.7 | 0.00 | 0.00 | 0.00 | 81 | 1027.5 |
| 20260505181905 | 56 | 92 | 5.2 | 7.8 | 0.00 | 0.00 | 0.00 | 81 | 1027.5 |
| 20260505181408 | 56 | 94 | 4.3 | 7.0 | 0.00 | 0.00 | 0.00 | 81 | 1027.5 |
| 20260505180906 | 56 | 94 | 5.2 | 7.8 | 0.00 | 0.00 | 0.00 | 81 | 1027.5 |
| 20260505180406 | 55 | 94 | 6.1 | 7.8 | 0.00 | 0.00 | 0.00 | 82 | 1027.5 |
| 20260505175906 | 55 | 99 | 7.0 | 8.7 | 0.00 | 0.00 | 0.00 | 82 | 1027.6 |
| 20260505175407 | 55 | 101 | 5.2 | 10.4 | 0.00 | 0.00 | 0.00 | 81 | 1027.7 |
| 20260505174906 | 55 | 95 | 6.1 | 10.4 | 0.00 | 0.00 | 0.00 | 81 | 1027.7 |
| 20260505174406 | 55 | 96 | 6.1 | 8.7 | 0.00 | 0.00 | 0.00 | 82 | 1027.6 |
| 20260505172906 | 55 | 103 | 6.1 | 7.8 | 0.00 | 0.00 | 0.00 | 84 | 1027.8 |
| 20260505172407 | 55 | 62 | 0.0 | 2.6 | 0.00 | 0.00 | 0.00 | 84 | 1027.9 |
| 20260505171906 | 55 | 108 | 0.0 | 2.6 | 0.00 | 0.00 | 0.00 | 84 | 1027.9 |
| 20260505171406 | 55 | 79 | 1.7 | 2.6 | 0.00 | 0.00 | 0.00 | 83 | 1027.9 |
| 20260505170907 | 55 | 5 | 0.9 | 5.2 | 0.00 | 0.00 | 0.00 | 82 | 1028.1 |
| 20260505170405 | 55 | 101 | 6.1 | 11.3 | 0.00 | 0.00 | 0.00 | 82 | 1027.9 |
| 20260505165906 | 55 | 93 | 6.1 | 10.4 | 0.00 | 0.00 | 0.00 | 82 | 1027.7 |
| 20260505164906 | 55 | 101 | 7.8 | 10.4 | 0.00 | 0.00 | 0.00 | 82 | 1027.9 |
| 20260505164405 | 55 | 93 | 7.0 | 8.7 | 0.00 | 0.00 | 0.00 | 82 | 1028.0 |
| 20260505163906 | 55 | 94 | 6.1 | 8.7 | 0.00 | 0.00 | 0.00 | 82 | 1028.0 |
| 20260505163406 | 55 | 94 | 6.1 | 7.8 | 0.00 | 0.00 | 0.00 | 83 | 1028.0 |
| 20260505162906 | 55 | 108 | 5.2 | 7.0 | 0.00 | 0.00 | 0.00 | 83 | 1028.1 |
| 20260505162407 | 55 | 106 | 1.7 | 6.1 | 0.00 | 0.00 | 0.00 | 83 | 1028.2 |
| 20260505161907 | 55 | 110 | 5.2 | 7.0 | 0.00 | 0.00 | 0.00 | 83 | 1028.2 |
| 20260505161406 | 55 | 103 | 1.7 | 2.6 | 0.00 | 0.00 | 0.00 | 83 | 1028.2 |
| 20260505160906 | 55 | 143 | 0.0 | 1.7 | 0.00 | 0.00 | 0.00 | 83 | 1028.3 |
| 20260505160406 | 56 | 181 | 0.9 | 4.3 | 0.00 | 0.00 | 0.00 | 82 | 1028.3 |
| 20260505152906 | 56 | 105 | 2.6 | 5.2 | 0.00 | 0.00 | 0.00 | 80 | 1028.5 |